Wind_Speed
67 68 70 72 73 74 76 77 79 80 80 81 81 81 81 83 84 85 86 87 88 89 90 92 93 94 96 97 98 100 101 102 103 103 104 105 105 106 108 109 110 111
73 74 75 76 77 78 79 81 81 82 82 83 83 83 85 86 88 89 90 90 91 92 93 94 95 97 98 99 100 102 103 104 105 106 107 108 109 110 111 112 113 114
76 77 78 79 79 80 81 82 83 84 85 85 85 86 88 89 91 92 93 93 94 95 96 97 98 99 100 101 103 104 106 107 108 109 110 111 112 113 114 115 116 117
78 79 79 80 80 81 82 84 86 87 87 88 88 90 91 93 94 95 96 96 97 98 99 100 101 102 103 104 106 107 109 110 111 112 113 114 115 116 117 118 119 121
80 80 81 81 82 84 85 86 88 89 90 91 92 93 94 96 97 98 98 99 100 101 102 103 104 105 106 108 109 110 111 112 113 114 115 116 118 119 120 121 122 123
82 82 83 84 86 87 88 89 91 92 92 93 95 96 97 99 100 101 101 102 103 104 104 105 107 108 109 111 112 113 114 115 116 117 118 119 120 121 123 124 125 126
84 85 86 88 89 90 90 92 94 94 95 96 97 99 100 101 102 103 104 105 106 106 107 108 109 111 112 113 114 115 116 117 118 119 120 121 123 124 126 127 127 128
88 89 90 91 92 92 93 95 96 97 97 98 99 101 102 104 105 106 107 108 108 109 110 111 112 114 115 116 117 117 118 120 121 122 123 124 126 127 128 129 130 130
90 91 92 93 94 95 96 98 99 100 100 101 102 103 105 106 107 108 109 110 111 112 113 113 115 116 117 118 119 120 121 122 123 125 126 127 129 130 131 131 132 133
92 93 94 96 97 98 100 101 102 102 103 103 104 105 107 108 109 110 111 112 114 115 115 116 117 119 120 121 122 123 124 125 126 128 129 130 132 132 133 134 134 135
94 96 97 98 100 102 103 104 104 105 105 106 107 108 109 110 111 112 114 115 116 117 118 118 120 121 123 124 125 126 127 128 129 130 132 133 134 134 135 136 136 137
97 98 100 101 103 104 105 106 107 107 108 109 109 110 111 112 113 115 116 118 119 119 120 121 123 124 126 127 128 129 130 131 132 133 134 135 136 136 137 137 138 138
100 101 102 104 105 106 107 108 109 110 110 111 112 112 113 114 115 117 118 120 121 122 123 124 126 127 129 130 131 132 133 134 135 136 136 137 137 138 138 138 139 139
103 105 106 107 108 108 109 110 111 112 113 113 114 114 115 116 117 119 121 122 124 125 126 127 128 130 132 133 134 135 135 136 137 138 138 139 139 139 139 140 140 140
107 108 109 110 110 111 112 113 114 114 115 115 116 117 117 118 119 121 123 125 126 128 129 130 131 133 134 135 136 136 137 138 139 139 139 139 139 140 140 140 141 141
110 111 112 112 113 114 114 115 116 117 117 118 118 119 120 121 122 124 126 128 129 131 132 133 134 135 135 136 137 137 138 139 140 140 140 139 140 140 140 141 141 142
113 113 114 115 116 116 117 118 118 119 120 120 121 121 122 124 126 128 130 131 133 134 134 135 135 136 136 137 138 139 140 140 140 140 140 140 140 140 140 141 141 142
114 115 116 117 118 118 119 120 121 121 122 123 124 125 126 128 130 131 133 134 135 136 136 136 137 137 137 138 139 140 140 140 140 140 140 140 140 140 140 141 141 142
116 117 118 119 119 119 120 121 122 123 124 125 127 128 130 131 133 134 136 137 137 137 138 138 138 138 139 140 141 141 141 140 140 140 140 140 140 140 141 141 142 142
118 119 120 120 120 121 122 123 124 125 127 128 130 131 133 134 135 137 138 139 139 139 139 139 139 139 140 141 141 141 141 141 141 141 141 141 141 141 142 142 143 143
121 122 122 121 122 123 123 125 126 128 129 131 132 133 135 136 138 139 139 140 139 139 139 139 140 140 141 141 141 141 141 141 141 141 141 141 142 143 143 143 144 145
123 123 123 123 124 125 126 128 129 131 132 133 134 135 136 138 139 140 140 140 140 139 139 140 140 141 141 141 141 141 141 141 141 141 142 142 143 144 144 145 146 147
125 125 126 126 127 128 130 131 132 133 134 135 136 137 138 139 140 140 140 140 139 140 140 140 141 142 142 141 141 141 141 141 142 142 143 143 144 144 145 146 147 148
127 128 129 129 130 131 132 132 133 134 135 136 137 138 139 139 139 139 139 139 139 140 141 141 142 142 142 142 142 142 142 142 142 143 143 143 144 145 146 147 149 149
130 130 131 131 132 132 133 134 134 135 136 137 138 138 139 139 139 139 139 140 140 141 142 142 142 142 142 142 142 142 142 142 142 142 143 143 144 145 147 148 149 149
131 131 131 132 133 133 134 134 135 136 137 137 138 138 138 138 139 139 140 141 141 142 142 142 143 143 143 143 143 143 143 142 142 143 143 144 145 146 147 147 147 147
Wind_Direction
283 285 286 288 289 291 292 293 295 297 298 298 298 299 300 301 302 304 305 306 307 307 308 308 309 309 310 310 310 310 310 310 310 311 311 311 311 311 310 310 310 310
284 286 287 288 290 291 292 293 294 295 296 297 297 297 298 299 301 303 305 306 307 308 308 308 308 309 308 308 308 308 309 309 310 310 310 310 310 310 310 310 310 310
285 286 287 288 289 291 292 293 294 294 295 296 296 296 297 298 300 302 304 306 307 307 307 307 308 308 307 307 307 308 308 309 309 309 310 310 309 309 309 309 309 309
285 286 287 288 289 291 292 293 294 294 294 294 295 295 296 298 300 301 303 305 306 306 307 307 307 307 307 307 307 307 308 308 309 309 309 309 309 309 309 309 309 309
286 286 287 288 289 290 292 294 295 294 294 294 294 295 296 298 299 301 302 303 304 305 306 306 306 306 306 306 306 307 307 308 308 308 308 308 308 308 308 308 309 309
285 286 287 288 289 290 292 293 294 294 294 293 294 295 297 298 299 300 301 302 303 304 305 305 306 306 306 306 306 306 307 307 307 307 308 308 308 308 308 308 308 309
285 286 287 288 289 290 291 292 294 294 294 294 294 295 296 298 299 299 300 301 302 303 304 304 305 305 305 305 305 306 306 306 307 307 307 307 307 307 308 308 308 309
285 286 286 287 288 289 289 291 292 293 294 294 294 295 296 297 298 298 299 300 302 302 303 303 304 305 305 305 305 305 306 306 306 306 307 307 307 307 307 308 308 309
284 285 286 287 287 288 289 290 291 292 293 294 294 295 295 296 297 298 299 301 301 302 302 303 304 304 305 305 305 305 305 306 306 306 307 307 307 307 308 308 308 309
283 284 285 286 286 287 288 290 291 292 293 294 294 295 295 296 297 299 300 300 301 301 302 302 303 304 304 304 304 305 305 306 306 306 306 306 307 307 308 308 308 309
283 283 284 285 286 287 288 289 290 291 292 293 294 295 296 297 298 299 299 300 301 301 301 302 302 303 303 304 304 305 305 305 306 306 306 306 307 307 307 308 308 308
282 283 284 285 286 287 287 288 289 291 292 293 294 295 296 297 298 298 299 300 301 301 301 301 301 302 303 303 304 304 305 305 305 306 306 306 306 307 307 307 308 308
281 282 284 285 286 286 287 288 289 291 292 294 295 296 296 297 297 298 299 299 300 300 300 300 301 301 302 303 303 304 304 305 305 305 306 306 306 306 307 307 307 308
281 282 284 285 286 286 287 288 290 291 293 294 295 295 296 296 297 297 298 299 299 299 299 300 300 301 301 302 303 303 304 304 305 305 305 306 306 306 307 307 307 307
281 282 283 285 286 287 288 289 290 292 293 294 294 295 295 295 296 296 297 297 298 298 299 299 300 300 301 301 302 303 304 304 305 305 305 305 305 306 306 306 306 307
281 282 284 286 287 288 289 290 291 292 293 293 294 294 294 294 294 295 296 297 297 298 298 299 299 300 300 301 302 302 303 304 304 304 304 305 305 305 305 306 306 306
282 283 285 287 289 289 290 290 291 292 292 292 292 292 293 293 294 295 296 296 297 298 298 298 299 299 300 300 301 302 303 303 303 304 304 304 304 305 305 305 305 305
283 284 286 288 290 291 291 291 291 291 291 291 291 291 292 292 293 294 295 296 297 297 298 298 299 299 300 300 301 302 302 303 303 303 304 304 304 304 304 304 304 304
284 286 288 289 290 291 291 291 291 290 290 290 290 291 291 292 293 294 295 296 297 297 298 298 298 299 299 300 301 302 302 302 303 303 303 303 304 304 304 304 304 304
285 287 288 289 290 290 290 290 289 289 289 289 290 290 291 292 293 294 295 296 296 297 297 298 298 299 300 300 301 301 302 302 302 303 303 303 303 303 303 303 303 303
285 286 287 288 288 288 288 288 288 288 289 289 289 290 291 292 293 294 295 295 296 296 297 298 298 299 300 300 301 301 302 302 302 302 302 302 302 302 303 303 303 303
284 285 286 286 286 286 287 287 287 288 288 289 289 290 291 292 293 294 294 295 296 296 297 298 298 299 300 300 301 301 301 301 301 301 301 302 302 302 302 302 302 303
283 283 284 284 285 285 286 286 287 288 288 289 289 290 291 292 293 293 294 295 296 296 297 298 298 299 299 300 300 300 300 300 300 301 301 301 301 302 302 302 302 303
281 282 283 284 284 285 286 286 287 288 288 289 289 290 291 292 292 293 294 295 296 296 297 297 298 298 298 299 299 299 299 299 300 300 300 301 301 301 301 302 302 302
280 282 283 284 284 285 286 286 287 288 288 289 289 290 291 291 292 293 294 295 295 296 296 297 297 297 298 298 298 298 299 299 299 300 300 300 301 301 301 301 302 302
280 282 283 283 284 285 286 286 287 287 288 288 289 290 290 291 292 293 294 294 295 295 296 296 296 297 297 297 297 298 298 298 299 299 299 299 300 300 300 301 302 302
Height
10803 10801 10800 10799 10797 10795 10793 10791 10789 10787 10785 10782 10779 10776 10773 10770 10767 10764 10760 10758 10755 10751 10748 10744 10741 10737 10733 10729 10725 10721 10717 10713 10709 10705 10701 10696 10691 10686 10681 10675 10670 10664
10796 10795 10794 10792 10791 10789 10787 10785 10783 10780 10778 10775 10772 10769 10766 10763 10759 10756 10753 10750 10747 10744 10741 10737 10733 10730 10726 10722 10718 10714 10710 10705 10700 10696 10691 10686 10681 10675 10670 10664 10658 10653
10789 10788 10787 10785 10784 10782 10780 10778 10775 10773 10770 10767 10765 10761 10758 10755 10752 10749 10746 10743 10740 10736 10733 10729 10726 10722 10718 10714 10710 10705 10701 10696 10691 10686 10681 10676 10670 10665 10659 10653 10647 10642
10782 10781 10779 10778 10777 10775 10773 10770 10768 10765 10762 10759 10757 10754 10750 10747 10744 10741 10738 10734 10731 10728 10725 10721 10717 10713 10709 10705 10701 10696 10691 10686 10681 10676 10670 10665 10659 10653 10648 10642 10636 10630
10775 10774 10772 10771 10769 10767 10765 10763 10760 10757 10754 10751 10748 10745 10742 10739 10735 10732 10729 10726 10723 10719 10716 10712 10708 10704 10700 10695 10690 10686 10681 10676 10671 10665 10659 10653 10647 10641 10635 10630 10624 10618
10767 10766 10765 10763 10761 10759 10757 10754 10752 10749 10746 10743 10740 10737 10734 10730 10727 10724 10720 10717 10714 10710 10707 10703 10698 10694 10689 10685 10680 10676 10671 10666 10660 10654 10648 10642 10635 10629 10623 10618 10612 10607
10760 10759 10757 10755 10753 10751 10749 10746 10743 10740 10737 10734 10731 10728 10725 10721 10718 10715 10712 10708 10705 10701 10697 10693 10689 10684 10679 10674 10670 10665 10660 10655 10649 10643 10637 10631 10624 10618 10611 10605 10600 10594
10752 10751 10749 10747 10745 10742 10740 10737 10734 10731 10728 10726 10723 10719 10716 10713 10709 10706 10702 10699 10695 10692 10688 10683 10679 10674 10668 10664 10659 10654 10649 10643 10638 10632 10625 10619 10612 10606 10600 10593 10588 10582
10745 10743 10741 10739 10736 10733 10731 10728 10725 10722 10720 10717 10713 10710 10707 10703 10700 10696 10693 10689 10686 10682 10678 10673 10668 10663 10657 10653 10647 10642 10637 10631 10625 10619 10613 10607 10600 10593 10587 10581 10575 10569
10737 10735 10732 10730 10727 10724 10721 10719 10716 10713 10710 10707 10704 10701 10697 10693 10690 10687 10683 10680 10676 10672 10667 10662 10657 10651 10646 10641 10636 10631 10625 10619 10613 10607 10601 10594 10587 10581 10575 10568 10562 10556
10728 10726 10723 10720 10717 10715 10712 10709 10706 10704 10701 10698 10695 10691 10688 10684 10681 10678 10674 10670 10666 10661 10656 10651 10645 10639 10634 10629 10624 10619 10613 10608 10602 10595 10589 10582 10576 10569 10563 10556 10550 10543
10719 10716 10713 10711 10708 10705 10702 10700 10697 10694 10691 10688 10685 10682 10679 10675 10672 10668 10664 10659 10655 10650 10645 10639 10633 10628 10622 10617 10612 10607 10601 10596 10590 10583 10577 10570 10563 10557 10550 10544 10538 10530
10709 10706 10704 10701 10698 10696 10693 10690 10687 10684 10681 10679 10676 10673 10669 10666 10662 10658 10653 10649 10644 10639 10633 10628 10622 10617 10611 10606 10600 10595 10590 10584 10578 10571 10564 10557 10551 10544 10538 10531 10525 10517
10699 10697 10694 10691 10689 10685 10682 10680 10677 10674 10672 10669 10666 10663 10659 10656 10652 10647 10643 10638 10633 10628 10623 10618 10612 10606 10601 10595 10589 10584 10578 10572 10566 10559 10552 10545 10537 10531 10525 10518 10511 10504
10689 10686 10684 10681 10678 10675 10672 10670 10667 10664 10662 10659 10656 10652 10649 10645 10641 10636 10632 10627 10623 10618 10613 10608 10602 10596 10591 10585 10579 10573 10567 10561 10554 10547 10540 10533 10525 10517 10510 10504 10497 10490
10678 10676 10673 10671 10668 10665 10662 10660 10657 10654 10651 10648 10644 10641 10637 10633 10629 10625 10621 10617 10612 10607 10602 10597 10592 10586 10580 10575 10569 10562 10556 10549 10542 10536 10529 10522 10515 10506 10498 10491 10484 10477
10667 10665 10663 10660 10658 10655 10652 10649 10646 10643 10640 10636 10632 10628 10624 10620 10616 10613 10609 10605 10601 10596 10591 10586 10580 10575 10569 10564 10558 10551 10545 10538 10530 10524 10517 10510 10503 10496 10488 10480 10472 10465
10657 10655 10653 10650 10647 10644 10641 10638 10635 10632 10628 10625 10620 10615 10611 10607 10604 10601 10597 10593 10588 10583 10578 10574 10568 10563 10557 10551 10546 10539 10533 10526 10519 10512 10505 10498 10490 10483 10476 10469 10461 10454
10647 10645 10642 10640 10637 10634 10630 10627 10623 10620 10616 10612 10608 10603 10599 10595 10591 10588 10584 10580 10576 10571 10566 10561 10556 10550 10545 10539 10532 10526 10519 10513 10506 10499 10492 10485 10478 10471 10464 10456 10449 10442
10637 10635 10632 10629 10626 10622 10619 10615 10611 10608 10604 10600 10595 10591 10587 10583 10579 10575 10571 10567 10563 10558 10553 10548 10543 10537 10531 10525 10518 10512 10506 10499 10492 10486 10479 10472 10465 10458 10450 10443 10436 10428
10626 10624 10621 10618 10614 10610 10607 10603 10599 10595 10591 10587 10583 10579 10575 10571 10567 10562 10558 10554 10549 10545 10540 10535 10529 10523 10517 10511 10505 10498 10492 10485 10478 10472 10466 10458 10451 10444 10437 10429 10422 10414
10615 10612 10609 10605 10602 10598 10594 10591 10587 10583 10579 10575 10571 10567 10563 10558 10554 10549 10545 10541 10536 10532 10527 10521 10515 10509 10503 10498 10493 10486 10479 10472 10465 10459 10453 10445 10438 10430 10423 10414 10407 10400
10602 10599 10596 10593 10590 10586 10582 10579 10575 10570 10566 10563 10559 10554 10550 10545 10541 10537 10532 10528 10523 10519 10514 10507 10501 10496 10491 10486 10480 10474 10467 10459 10453 10446 10439 10432 10425 10416 10408 10400 10392 10385
10590 10587 10584 10581 10577 10574 10570 10566 10562 10558 10554 10550 10546 10541 10537 10533 10529 10524 10520 10515 10511 10505 10499 10494 10488 10482 10478 10473 10468 10462 10455 10447 10440 10434 10427 10419 10411 10403 10395 10386 10379 10372
10578 10575 10572 10569 10565 10561 10557 10553 10549 10545 10541 10537 10533 10528 10524 10520 10516 10512 10507 10502 10497 10492 10486 10480 10474 10469 10464 10460 10454 10448 10442 10435 10428 10422 10415 10407 10399 10390 10382 10374 10366 10358
10565 10562 10559 10555 10552 10548 10544 10540 10536 10532 10528 10524 10520 10516 10512 10508 10503 10498 10494 10489 10484 10478 10472 10466 10460 10456 10451 10445 10439 10433 10428 10422 10415 10409 10403 10395 10387 10378 10370 10362 10353 10345